Погода в Глинске

Украина / Кировоградская область     48°57′13″N   32°54′05″E
темп.,
°C
ветер,
м/с
пор.,
м/с
влажн.,
%
обл.,
%
осадки,
мм/ч
давл.,
гПа
погр.,
м
17 сентября, пт
пт1700:00+14юв22526 0.0 101827
03:00+12ю33585 0.0 101844
06:00+12ю346155 0.0 101768
09:00+17ю564098 0.0 1016333
12:00+23ю453351 0.0 10141219
15:00+25ююз563039 0.0 10121635
18:00+23юз3438100 0.1 1011134
21:00+20ююз5104794 0.1 1011293
18 сентября, сб
сб1800:00+19ююз5135296 0.3 1011614
03:00+16ю61383100 2.3 1010474
06:00+16ю91589100 0.4 1009583
09:00+15ююв81583100 1.2 1009547
12:00+19ю101363100 0.3 1008903
15:00+19ююв81365100 0.8 1007915
18:00+16ю71485100 2.4 1007653
21:00+16ю51189100 6.9 1007651
19 сентября, вс
вс1900:00+16сз4893100 4.0 1007448
03:00+14зсз489157 4.1 1008292
06:00+12з35905 0.0 1009136
09:00+14з237566 0.0 1010292
12:00+16зюз2367100 0.0 1009533
15:00+20ю365546 0.0 10081025
18:00+16зюз597699 1.7 1007359
21:00+11зсз488886 1.7 1010446
20 сентября, пн
пн2000:00+9з4881100 0.0 1010492
03:00+9зюз5879100 0.0 1010767
06:00+9зюз4772100 0.0 1010792
09:00+9зюз5772100 0.1 10101077
12:00+9зюз6878100 0.1 1011896
15:00+11зюз6969100 0.1 10121063
18:00+9зюз6981100 0.2 1013948
21:00+9з698388 0.2 1014628
21 сентября, вт
вт2100:00+9з5984100 0.1 1015638
03:00+7з589161 0.1 1016321
06:00+8зюз5880100 0.0 1016591
09:00+10з585943 0.0 10161241
12:00+12з6750100 0.0 10161561
15:00+12з6847100 0.0 10161665
18:00+11зсз6105154 0.0 10161541
21:00+8зюз486586 0.0 1016370